Location: Kalberh�ni
(46.4610°N, 7.2453°E)
Time: 08:21:34
(UTC+00:00)

Lacrosse 4 Rocket - Pass Details

Date: 20 October 2021
Orbit: 538 x 619 km, 68.0° (Epoch: 28 November)

Event Time Altitude Azimuth Distance (km) Brightness Sun altitude
Rises 18:48:14 0° 328° (NNW) 2,804 5.5 -23.5°
Reaches altitude 10° 18:50:27 10° 329° (NNW) 1,914 4.6 -23.9°
Enters shadow 18:54:21 73° 335° (NNW) 626 1.5 -24.6°
